GOES 17 (43226 NORAD) Tracking and Keplerian Element Data

This shows tracking and keplerian element data for the satellite.

Feedback or suggestion? Click here.




ElementValue
Catalog43226
NameGOES 17
Epoch Orbit1172
Epoch Day130.70522168
Epoch Year2021
RAAN270.4146
Inclination0.0237
Eccentricity3.57E-05
Argument of Perigee172.6849
Mean Anonmoly262.3026
Mean Motion1.00273056
Decay Rate1.02E-06
L11 43226U 18022A 21130.70522168 .00000102 00000-0 00000-0 0 9991
L22 43226 0.0237 270.4146 0000357 172.6849 262.3026 1.00273056 11723

Live tracking and technical data element details for GOES 17 (NORAD 43226). GOES 17 can be tracked NOW for your location showing map with azimuth and elevation plus other details from your city location.

Track the satellite on the map from your city or location and see movement details for azimuth, elevation, latitude, longitude, range, height, and movement on the map or in text.







IsCatalogInMostPopularTable: catalog: 43226, numindb: 717
Update: records affected: 1



GetName: 43226 GOES 17

Hit Count: updated at: Tue, 11 May 2021 19:52:04 GMT